Content
SEND FEEDBACK

Daily
Averages
Monthly
Summary
United States of America

K. I. SAWYER AIR FORCE BASE, MICHIGAN


Home > North America > United States > Michigan
Elevation: 1240 feet     Latitude: 46 21N     Longitude: 087 22W

WEATHER
 
SELECT A DAY
Number of Records: 288,344;   Date Range: 1/1/95 - 7/29/14
 
SHARE

PRINT THIS DATA

[ ← Previous Day ]
WEATHER ALMANAC - JANUARY 31, 2013
[ Next Day → ]
[ °C ]   °F
Weather ElementAverageHighLow
Temperature10.6 °F14 °F (12:37 am)6.8 °F (8:55 pm)
Dewpoint5.6 °F10.8 °F (1:17 am)1.4 °F (4:50 pm)
Humidity80.2 %87 % (12:57 am)67 % (4:50 pm)
Barometer29.56 in29.85 in (11:57 pm)29.33 in (12:37 am)
Wind Speed14.3 mph20.7 mph (3:50 pm)
Wind Gust28.8 mph (12:37 am)
Weather ElementAverage
Visibility5.3 mi
Wind DirectionNNW (323.2 °)

Weather ElementTotal
Precipitation---
Heating Degree Days54.6 (Base 65)
Averaged from 38 records on January 31, 2013
WEATHER CONDITIONS BREAKOUT
WIND DIRECTION BREAKOUT
WEATHER BY HOUR - JANUARY 31, 2013
[ °C ]   °F
Local TimeTemperatureDewpointHumidityBarometerVisibilityWind DirectionWind SpeedGust SpeedPrecipitationEventsConditions
12:37 AM14.0 °F10.6 °F86 %29.33 inNorth (350°)17.3 mph28.8 mphOvercast
12:57 AM13.8 °F10.6 °F87 %29.33 inNorth (350°)15.0 mph23.0 mphOvercast
1:17 AM14.0 °F10.8 °F87 %29.35 inNNW (340°)9.2 mph20.7 mphOvercast
1:36 AM13.8 °F10.6 °F87 %29.35 inNNW (330°)15.0 mph18.4 mphOvercast
1:57 AM13.5 °F9.9 °F86 %29.36 in1.5 miNNW (340°)16.1 mph20.7 mphSnowLight Snow
2:17 AM12.9 °F9.1 °F85 %29.37 in4.0 miNNW (340°)16.1 mph23.0 mphSnowLight Snow
2:36 AM12.9 °F9.3 °F86 %29.38 in2.0 miNNW (340°)15.0 mph20.7 mphSnowLight Snow
2:57 AM13.1 °F9.1 °F84 %29.38 in1.8 miNNW (340°)16.1 mph24.2 mphSnowLight Snow
3:17 AM12.7 °F9.3 °F86 %29.39 in1.2 miNNW (340°)16.1 mph23.0 mphSnowLight Snow
3:37 AM12.6 °F8.6 °F84 %29.39 in1.8 miNNW (330°)15.0 mph21.9 mphSnowLight Snow
3:57 AM12.2 °F8.6 °F85 %29.40 in1.5 miNNW (330°)13.8 mph21.9 mphSnowLight Snow
4:16 AM12.0 °F8.6 °F86 %29.40 in1.2 miNW (320°)12.7 mphSnowLight Snow
4:37 AM11.7 °F8.1 °F85 %29.41 in1.8 miNW (320°)16.1 mph21.9 mphSnowLight Snow
4:57 AM11.3 °F7.5 °F85 %29.41 in2.5 miNW (320°)18.4 mph27.6 mphSnowLight Snow
5:16 AM11.1 °F6.8 °F83 %29.43 in2.5 miNW (320°)15.0 mphSnowLight Snow
5:37 AM10.9 °F6.4 °F82 %29.43 in2.0 miNW (310°)15.0 mph23.0 mphSnowLight Snow
5:57 AM10.8 °F5.9 °F81 %29.43 in3.0 miNW (320°)16.1 mphSnowLight Snow
6:51 AM10.4 °F5.0 °F79 %29.46 in4.0 miNW (310°)13.8 mphSnowLight Snow
8:50 AM8.6 °F3.2 °F79 %29.51 in4.0 miNW (310°)15.0 mph19.6 mphSnowLight Snow
9:50 AM8.6 °F3.2 °F79 %29.54 in10.0 miNW (310°)13.8 mphOvercast
10:45 AM10.4 °F3.2 °F73 %29.57 in7.0 miNW (320°)17.3 mph23.0 mphOvercast
10:50 AM10.4 °F3.2 °F73 %29.57 in7.0 miNW (320°)17.3 mph23.0 mphOvercast
11:50 AM10.4 °F3.2 °F73 %29.60 in10.0 miNW (310°)17.3 mph23.0 mphOvercast
1:50 PM12.2 °F5.0 °F73 %29.63 in3.0 miNW (310°)19.6 mph24.2 mphHaze
3:15 PM10.4 °F5.0 °F79 %29.66 in2.0 miNNW (330°)16.1 mphSnowLight Snow
3:50 PM10.4 °F3.2 °F73 %29.68 in5.0 miNNW (330°)20.7 mph26.5 mphSnowLight Snow
4:50 PM10.4 °F1.4 °F67 %29.72 in5.0 miNNW (330°)16.1 mph23.0 mphSnowLight Snow
5:50 PM8.6 °F1.4 °F73 %29.74 in7.0 miNW (310°)12.7 mphSnowLight Snow
6:50 PM8.6 °F3.2 °F79 %29.76 in5.0 miWNW (300°)12.7 mphSnowLight Snow
7:50 PM8.6 °F3.2 °F79 %29.79 in7.0 miNW (310°)11.5 mph16.1 mphSnowLight Snow
8:55 PM6.8 °F3.2 °F85 %29.81 in7.0 miNW (310°)9.2 mphOvercast
9:45 PM8.6 °F3.2 °F79 %29.82 in10.0 miNW (320°)10.4 mph16.1 mphOvercast
10:17 PM8.4 °F2.8 °F78 %29.83 in10.0 miNW (320°)10.4 mphOvercast
10:36 PM8.1 °F2.3 °F77 %29.83 in10.0 miNW (320°)10.4 mph16.1 mphOvercast
10:57 PM7.7 °F1.8 °F77 %29.84 in10.0 miNW (320°)10.4 mphOvercast
11:16 PM8.2 °F2.1 °F76 %29.84 in10.0 miNW (320°)11.5 mph18.4 mphOvercast
11:37 PM8.1 °F1.9 °F76 %29.84 in10.0 miNW (320°)11.5 mph17.3 mphOvercast
11:57 PM7.3 °F1.4 °F77 %29.85 in10.0 miNW (310°)9.2 mphMostly Cloudy
Hourly data recorded from KSAW, located miles away from K. I. Sawyer Air Force Base, Michigan







STORIES FROM OUR PARTNERS